Year,Month,Day,Hour,Minute,Value (Times are PST for temperature in C)
2018,01,16,00,00,10.60
2018,01,16,00,01,10.60
2018,01,16,00,02,10.50
2018,01,16,00,03,10.50
2018,01,16,00,04,10.40
2018,01,16,00,05,10.40
2018,01,16,00,06,10.40
2018,01,16,00,07,10.40
2018,01,16,00,08,10.40
2018,01,16,00,09,10.30
2018,01,16,00,10,10.30
2018,01,16,00,11,10.30
2018,01,16,00,12,10.30
2018,01,16,00,13,10.30
2018,01,16,00,14,10.30
2018,01,16,00,15,10.30
2018,01,16,00,16,10.20
2018,01,16,00,17,10.20
2018,01,16,00,18,10.20
2018,01,16,00,19,10.20
2018,01,16,00,20,10.20
2018,01,16,00,21,10.20
2018,01,16,00,22,10.20
2018,01,16,00,23,10.20
2018,01,16,00,24,10.30
2018,01,16,00,25,10.30
2018,01,16,00,26,10.30
2018,01,16,00,27,10.30
2018,01,16,00,28,10.30
2018,01,16,00,29,10.30
2018,01,16,00,30,10.30
2018,01,16,00,31,10.30
2018,01,16,00,32,10.30
2018,01,16,00,33,10.30
2018,01,16,00,34,10.30
2018,01,16,00,35,10.20
2018,01,16,00,36,10.20
2018,01,16,00,37,10.20
2018,01,16,00,38,10.20
2018,01,16,00,39,10.20
2018,01,16,00,40,10.20
2018,01,16,00,41,10.20
2018,01,16,00,42,10.20
2018,01,16,00,43,10.20
2018,01,16,00,44,10.30
2018,01,16,00,45,10.20
2018,01,16,00,46,10.20
2018,01,16,00,47,10.20
2018,01,16,00,48,10.20
2018,01,16,00,49,10.20
2018,01,16,00,50,10.20
2018,01,16,00,51,10.20
2018,01,16,00,52,10.20
2018,01,16,00,53,10.20
2018,01,16,00,54,10.20
2018,01,16,00,55,10.20
2018,01,16,00,56,10.20
2018,01,16,00,57,10.20
2018,01,16,00,58,10.20
2018,01,16,00,59,10.20
2018,01,16,01,00,10.10
2018,01,16,01,01,10.10
2018,01,16,01,02,10.10
2018,01,16,01,03,10.10
2018,01,16,01,04,10.10
2018,01,16,01,05,10.10
2018,01,16,01,06,10.10
2018,01,16,01,07,10.00
2018,01,16,01,08,10.00
2018,01,16,01,09,10.00
2018,01,16,01,10,10.00
2018,01,16,01,11,10.00
2018,01,16,01,12,9.90
2018,01,16,01,13,9.90
2018,01,16,01,14,9.90
2018,01,16,01,15,9.90
2018,01,16,01,16,9.80
2018,01,16,01,17,9.80
2018,01,16,01,18,9.80
2018,01,16,01,19,9.80
2018,01,16,01,20,9.80
2018,01,16,01,21,9.80
2018,01,16,01,22,9.80
2018,01,16,01,23,9.80
2018,01,16,01,24,9.80
2018,01,16,01,25,9.70
2018,01,16,01,26,9.70
2018,01,16,01,27,9.70
2018,01,16,01,28,9.70
2018,01,16,01,29,9.70
2018,01,16,01,30,9.70
2018,01,16,01,31,9.70
2018,01,16,01,32,9.70
2018,01,16,01,33,9.60
2018,01,16,01,34,9.60
2018,01,16,01,35,9.60
2018,01,16,01,36,9.60
2018,01,16,01,37,9.60
2018,01,16,01,38,9.60
2018,01,16,01,39,9.60
2018,01,16,01,40,9.60
2018,01,16,01,41,9.60
2018,01,16,01,42,9.50
2018,01,16,01,43,9.50
2018,01,16,01,44,9.50
2018,01,16,01,45,9.40
2018,01,16,01,46,9.40
2018,01,16,01,47,9.40
2018,01,16,01,48,9.40
2018,01,16,01,49,9.40
2018,01,16,01,50,9.40
2018,01,16,01,51,9.40
2018,01,16,01,52,9.40
2018,01,16,01,53,9.30
2018,01,16,01,54,9.30
2018,01,16,01,55,9.30
2018,01,16,01,56,9.30
2018,01,16,01,57,9.30
2018,01,16,01,58,9.30
2018,01,16,01,59,9.30
2018,01,16,02,00,9.30
2018,01,16,02,01,9.30
2018,01,16,02,02,9.20
2018,01,16,02,03,9.20
2018,01,16,02,04,9.20
2018,01,16,02,05,9.20
2018,01,16,02,06,9.20
2018,01,16,02,07,9.20
2018,01,16,02,08,9.20
2018,01,16,02,09,9.20
2018,01,16,02,10,9.20
2018,01,16,02,11,9.20
2018,01,16,02,12,9.20
2018,01,16,02,13,9.20
2018,01,16,06,11,8.90
2018,01,16,06,12,8.90
2018,01,16,06,13,8.90
2018,01,16,06,14,8.90
2018,01,16,06,15,8.90
2018,01,16,06,16,8.90
2018,01,16,06,17,8.90
2018,01,16,06,18,8.90
2018,01,16,06,19,8.90
2018,01,16,06,20,8.90
2018,01,16,06,21,8.90
2018,01,16,06,22,9.00
2018,01,16,06,23,9.00
2018,01,16,06,24,9.00
2018,01,16,06,25,9.10
2018,01,16,06,26,9.10
2018,01,16,06,27,9.10
2018,01,16,06,28,9.10
2018,01,16,06,29,9.10
2018,01,16,06,30,9.10
2018,01,16,06,31,9.10
2018,01,16,06,32,9.20
2018,01,16,06,33,9.20
2018,01,16,06,34,9.20
2018,01,16,06,35,9.20
2018,01,16,06,36,9.20
2018,01,16,06,37,9.20
2018,01,16,06,38,9.20
2018,01,16,06,39,9.20
2018,01,16,06,40,9.20
2018,01,16,06,41,9.20
2018,01,16,06,42,9.20
2018,01,16,06,43,9.10
2018,01,16,06,44,9.20
2018,01,16,06,45,9.20
2018,01,16,06,46,9.20
2018,01,16,06,47,9.20
2018,01,16,06,48,9.20
2018,01,16,06,49,9.20
2018,01,16,06,50,9.10
2018,01,16,06,51,9.10
2018,01,16,06,52,9.10
2018,01,16,06,53,9.10
2018,01,16,06,54,9.10
2018,01,16,06,55,9.10
2018,01,16,06,56,9.10
2018,01,16,06,57,9.10
2018,01,16,06,58,9.10
2018,01,16,06,59,9.10
2018,01,16,07,00,9.00
2018,01,16,07,01,9.00
2018,01,16,07,02,9.00
2018,01,16,07,03,9.00
2018,01,16,07,04,8.90
2018,01,16,07,05,8.90
2018,01,16,07,06,8.90
2018,01,16,07,07,8.90
2018,01,16,07,08,8.90
2018,01,16,07,09,8.90
2018,01,16,07,10,8.90
2018,01,16,07,11,8.80
2018,01,16,07,12,8.80
2018,01,16,07,13,8.80
2018,01,16,07,14,8.80
2018,01,16,07,15,8.80
2018,01,16,07,16,8.80
2018,01,16,07,17,8.80
2018,01,16,07,18,8.80
2018,01,16,07,19,8.80
2018,01,16,07,20,8.70
2018,01,16,07,21,8.70
2018,01,16,07,22,8.70
2018,01,16,07,23,8.70
2018,01,16,07,24,8.70
2018,01,16,07,25,8.70
2018,01,16,07,26,8.70
2018,01,16,07,27,8.70
2018,01,16,07,28,8.70
2018,01,16,07,29,8.70
2018,01,16,07,30,8.70
2018,01,16,07,31,8.70
2018,01,16,07,32,8.70
2018,01,16,07,33,8.60
2018,01,16,07,34,8.60
2018,01,16,07,35,8.60
2018,01,16,07,36,8.60
2018,01,16,07,37,8.60
2018,01,16,07,38,8.50
2018,01,16,07,39,8.50
2018,01,16,07,40,8.40
2018,01,16,07,41,8.40
2018,01,16,07,42,8.40
2018,01,16,07,43,8.40
2018,01,16,07,44,8.40
2018,01,16,07,45,8.30
2018,01,16,07,46,8.30
2018,01,16,07,47,8.30
2018,01,16,07,48,8.30
2018,01,16,07,49,8.30
2018,01,16,07,50,8.20
2018,01,16,07,51,8.20
2018,01,16,07,52,8.20
2018,01,16,07,53,8.10
2018,01,16,07,54,8.10
2018,01,16,07,55,8.00
2018,01,16,07,56,8.00
2018,01,16,07,57,7.90
2018,01,16,07,58,7.90
2018,01,16,07,59,7.90
2018,01,16,08,00,7.90
2018,01,16,08,01,7.90
2018,01,16,08,02,7.90
2018,01,16,08,03,7.90
2018,01,16,08,04,7.90
2018,01,16,08,05,8.00
2018,01,16,08,06,8.00
2018,01,16,08,07,8.00
2018,01,16,08,08,8.00
2018,01,16,08,09,8.10
2018,01,16,08,10,8.10
2018,01,16,08,11,8.10
2018,01,16,08,12,8.10
2018,01,16,08,13,8.10
2018,01,16,08,14,8.10
2018,01,16,08,15,8.10
2018,01,16,08,16,8.10
2018,01,16,08,17,8.10
2018,01,16,08,18,8.10
2018,01,16,08,19,8.10
2018,01,16,08,20,8.10
2018,01,16,08,21,8.10
2018,01,16,08,22,8.10
2018,01,16,08,23,8.10
2018,01,16,08,24,8.10
2018,01,16,08,25,8.10
2018,01,16,08,26,8.10
2018,01,16,08,27,8.10
2018,01,16,08,28,8.10
2018,01,16,08,29,8.10
2018,01,16,08,30,8.10
2018,01,16,08,31,8.10
2018,01,16,08,32,8.10
2018,01,16,08,33,8.10
2018,01,16,08,34,8.10
2018,01,16,08,35,8.10
2018,01,16,08,36,8.10
2018,01,16,08,37,8.20
2018,01,16,08,38,8.20
2018,01,16,08,39,8.10
2018,01,16,08,40,8.10
2018,01,16,08,41,8.10
2018,01,16,08,42,8.10
2018,01,16,08,43,8.10
2018,01,16,08,44,8.10
2018,01,16,08,45,8.10
2018,01,16,08,46,8.10
2018,01,16,08,47,8.10
2018,01,16,08,48,8.10
2018,01,16,08,49,8.10
2018,01,16,08,50,8.10
2018,01,16,08,51,8.10
2018,01,16,08,52,8.10
2018,01,16,08,53,8.10
2018,01,16,08,54,8.10
2018,01,16,08,55,8.10
2018,01,16,08,56,8.10
2018,01,16,08,57,8.10
2018,01,16,08,58,8.10
2018,01,16,08,59,8.10
2018,01,16,09,00,8.10
2018,01,16,09,01,8.10
2018,01,16,09,02,8.10
2018,01,16,09,03,8.10
2018,01,16,09,04,8.10
2018,01,16,09,05,8.20
2018,01,16,09,06,8.20
2018,01,16,09,07,8.20
2018,01,16,09,08,8.20
2018,01,16,09,09,8.20
2018,01,16,09,10,8.30
2018,01,16,09,11,8.30
2018,01,16,09,12,8.30
2018,01,16,09,13,8.40
2018,01,16,09,14,8.40
2018,01,16,09,15,8.40
2018,01,16,09,16,8.50
2018,01,16,09,17,8.50
2018,01,16,09,18,8.50
2018,01,16,09,19,8.60
2018,01,16,09,20,8.60
2018,01,16,09,21,8.60
2018,01,16,09,22,8.60
2018,01,16,09,23,8.70
2018,01,16,09,24,8.70
2018,01,16,09,25,8.70
2018,01,16,09,26,8.70
2018,01,16,09,27,8.80
2018,01,16,09,28,8.80
2018,01,16,09,29,8.80
2018,01,16,09,30,8.80
2018,01,16,09,31,8.80
2018,01,16,09,32,8.80
2018,01,16,09,33,8.80
2018,01,16,09,34,8.80
2018,01,16,09,35,8.80
2018,01,16,09,36,8.80
2018,01,16,09,37,8.70
2018,01,16,09,38,8.70
2018,01,16,09,39,8.70
2018,01,16,09,40,8.70
2018,01,16,09,41,8.60
2018,01,16,09,42,8.60
2018,01,16,09,43,8.60
2018,01,16,09,44,8.60
2018,01,16,09,45,8.50
2018,01,16,09,46,8.50
2018,01,16,09,47,8.50
2018,01,16,09,48,8.50
2018,01,16,09,49,8.50
2018,01,16,09,50,8.50
2018,01,16,09,51,8.50
2018,01,16,09,52,8.50
2018,01,16,09,53,8.50
2018,01,16,09,54,8.50
2018,01,16,09,55,8.50
2018,01,16,09,56,8.60
2018,01,16,09,57,8.60
2018,01,16,09,58,8.60
2018,01,16,09,59,8.60
2018,01,16,10,00,8.50
2018,01,16,10,01,8.60
2018,01,16,10,02,8.60
2018,01,16,10,03,8.60
2018,01,16,10,04,8.70
2018,01,16,10,05,8.70
2018,01,16,10,06,8.70
2018,01,16,10,07,8.70
2018,01,16,10,08,8.80
2018,01,16,10,09,8.80
2018,01,16,10,10,8.80
2018,01,16,10,11,8.80
2018,01,16,10,12,8.90
2018,01,16,10,13,8.90
2018,01,16,10,14,8.90
2018,01,16,10,15,9.00
2018,01,16,10,16,9.00
2018,01,16,10,17,9.10
2018,01,16,10,18,9.20
2018,01,16,10,19,9.20
2018,01,16,10,20,9.30
2018,01,16,10,21,9.40
2018,01,16,10,22,9.50
2018,01,16,10,23,9.60
2018,01,16,10,24,9.60
2018,01,16,10,25,9.70
2018,01,16,10,26,9.70
2018,01,16,10,27,9.70
2018,01,16,10,28,9.70
2018,01,16,10,29,9.70
2018,01,16,10,30,9.70
2018,01,16,10,31,9.70
2018,01,16,10,32,9.70
2018,01,16,10,33,9.70
2018,01,16,10,34,9.70
2018,01,16,10,35,9.60
2018,01,16,10,36,9.60
2018,01,16,10,37,9.60
2018,01,16,10,38,9.50
2018,01,16,10,39,9.50
2018,01,16,10,40,9.50
2018,01,16,10,41,9.40
2018,01,16,10,42,9.40
2018,01,16,10,43,9.50
2018,01,16,10,44,9.50
2018,01,16,10,45,9.50
2018,01,16,10,46,9.50
2018,01,16,10,47,9.60
2018,01,16,10,48,9.60
2018,01,16,10,49,9.60
2018,01,16,10,50,9.60
2018,01,16,10,51,9.60
2018,01,16,10,52,9.70
2018,01,16,10,53,9.60
2018,01,16,10,54,9.60
2018,01,16,10,55,9.70
2018,01,16,10,56,9.70
2018,01,16,10,57,9.60
2018,01,16,10,58,9.70
2018,01,16,10,59,9.60
2018,01,16,11,00,9.70
2018,01,16,11,01,9.70
2018,01,16,11,02,9.70
2018,01,16,11,03,9.70
2018,01,16,11,04,9.70
2018,01,16,11,05,9.70
2018,01,16,11,06,9.80
2018,01,16,11,07,9.80
2018,01,16,11,08,9.70
2018,01,16,11,09,9.80
2018,01,16,11,10,9.80
2018,01,16,11,11,9.80
2018,01,16,11,12,9.80
2018,01,16,11,13,9.90
2018,01,16,11,14,9.90
2018,01,16,11,15,9.90
2018,01,16,11,16,9.90
2018,01,16,11,17,9.90
2018,01,16,11,18,9.90
2018,01,16,11,19,9.90
2018,01,16,11,20,9.90
2018,01,16,11,21,9.90
2018,01,16,11,22,9.90
2018,01,16,11,23,10.00
2018,01,16,11,24,10.00
2018,01,16,11,25,10.00
2018,01,16,11,26,10.00
2018,01,16,11,27,9.90
2018,01,16,11,28,9.90
2018,01,16,11,29,9.90
2018,01,16,11,30,9.90
2018,01,16,11,31,9.90
2018,01,16,11,32,10.00
2018,01,16,11,33,10.00
2018,01,16,11,34,10.10
2018,01,16,11,35,10.10
2018,01,16,11,36,10.10
2018,01,16,11,37,10.10
2018,01,16,11,38,10.10
2018,01,16,11,39,10.10
2018,01,16,11,40,10.10
2018,01,16,11,41,10.10
2018,01,16,11,42,10.10
2018,01,16,11,43,10.20
2018,01,16,11,44,10.20
2018,01,16,11,45,10.20
2018,01,16,11,46,10.30
2018,01,16,11,47,10.30
2018,01,16,11,48,10.30
2018,01,16,11,49,10.30
2018,01,16,11,50,10.40
2018,01,16,11,51,10.40
2018,01,16,11,52,10.50
2018,01,16,11,53,10.50
2018,01,16,11,54,10.50
2018,01,16,11,55,10.60
2018,01,16,11,56,10.50
2018,01,16,11,57,10.50
2018,01,16,11,58,10.50
2018,01,16,11,59,10.50
2018,01,16,12,00,10.50
2018,01,16,12,01,10.50
2018,01,16,12,02,10.60
2018,01,16,12,03,10.60
2018,01,16,12,04,10.60
2018,01,16,12,05,10.60
2018,01,16,12,06,10.60
2018,01,16,12,07,10.60
2018,01,16,12,08,10.60
2018,01,16,12,09,10.60
2018,01,16,12,10,10.60
2018,01,16,12,11,10.60
2018,01,16,12,12,10.60
2018,01,16,12,13,10.60
2018,01,16,12,14,10.70
2018,01,16,12,15,10.70
2018,01,16,12,16,10.70
2018,01,16,12,17,10.70
2018,01,16,12,18,10.70
2018,01,16,12,19,10.80
2018,01,16,12,20,10.80
2018,01,16,12,21,10.80
2018,01,16,12,22,10.80
2018,01,16,12,23,10.80
2018,01,16,12,24,10.70
2018,01,16,12,25,10.70
2018,01,16,12,26,10.70
2018,01,16,12,27,10.60
2018,01,16,12,28,10.60
2018,01,16,12,29,10.50
2018,01,16,12,30,10.50
2018,01,16,12,31,10.40
2018,01,16,12,32,10.40
2018,01,16,12,33,10.40
2018,01,16,12,34,10.40
2018,01,16,12,35,10.40
2018,01,16,12,36,10.40
2018,01,16,12,37,10.40
2018,01,16,12,38,10.40
2018,01,16,12,39,10.40
2018,01,16,12,40,10.40
2018,01,16,12,41,10.40
2018,01,16,12,42,10.40
2018,01,16,12,43,10.40
2018,01,16,12,44,10.40
2018,01,16,12,45,10.50
2018,01,16,12,46,10.50
2018,01,16,12,47,10.60
2018,01,16,12,48,10.60
2018,01,16,12,49,10.60
2018,01,16,12,50,10.60
2018,01,16,12,51,10.60
2018,01,16,12,52,10.60
2018,01,16,12,53,10.70
2018,01,16,12,54,10.60
2018,01,16,12,55,10.60
2018,01,16,12,56,10.60
2018,01,16,12,57,10.60
2018,01,16,12,58,10.60
2018,01,16,12,59,10.60
2018,01,16,13,00,10.60
2018,01,16,13,01,10.60
2018,01,16,13,02,10.60
2018,01,16,13,03,10.60
2018,01,16,13,04,10.70
2018,01,16,13,05,10.70
2018,01,16,13,06,10.70
2018,01,16,13,07,10.80
2018,01,16,13,08,10.80
2018,01,16,13,09,10.90
2018,01,16,13,10,10.90
2018,01,16,13,11,10.90
2018,01,16,13,12,10.80
2018,01,16,13,13,10.80
2018,01,16,13,14,10.90
2018,01,16,13,15,10.90
2018,01,16,13,16,10.90
2018,01,16,13,17,10.90
2018,01,16,13,18,10.90
2018,01,16,13,19,10.90
2018,01,16,13,20,10.80
2018,01,16,13,21,10.80
2018,01,16,13,22,10.80
2018,01,16,13,23,10.80
2018,01,16,13,24,10.80
2018,01,16,13,25,10.80
2018,01,16,13,26,10.80
2018,01,16,13,27,10.80
2018,01,16,13,28,10.90
2018,01,16,13,29,10.90
2018,01,16,13,30,10.90
2018,01,16,13,31,10.90
2018,01,16,13,32,10.80
2018,01,16,13,33,10.80
2018,01,16,13,34,10.80
2018,01,16,13,35,10.80
2018,01,16,13,36,10.80
2018,01,16,13,37,10.80
2018,01,16,13,38,10.90
2018,01,16,13,39,10.90
2018,01,16,13,40,10.90
2018,01,16,13,41,10.90
2018,01,16,13,42,10.80
2018,01,16,13,43,10.80
2018,01,16,13,44,10.80
2018,01,16,13,45,10.80
2018,01,16,13,46,10.80
2018,01,16,13,47,10.80
2018,01,16,13,48,10.90
2018,01,16,13,49,10.90
2018,01,16,13,50,10.90
2018,01,16,13,51,11.00
2018,01,16,13,52,10.90
2018,01,16,13,53,10.90
2018,01,16,13,54,10.90
2018,01,16,13,55,10.90
2018,01,16,13,56,10.90
2018,01,16,13,57,10.90
2018,01,16,13,58,10.90
2018,01,16,13,59,10.80
2018,01,16,14,00,10.80
2018,01,16,14,01,10.90
2018,01,16,14,02,10.90
2018,01,16,14,03,10.90
2018,01,16,14,04,10.90
2018,01,16,14,05,10.90
2018,01,16,14,06,11.00
2018,01,16,14,07,11.00
2018,01,16,14,08,11.10
2018,01,16,14,09,11.10
2018,01,16,14,10,11.10
2018,01,16,14,11,11.00
2018,01,16,14,12,11.00
2018,01,16,14,13,10.90
2018,01,16,14,14,10.90
2018,01,16,14,15,10.90
2018,01,16,14,16,10.80
2018,01,16,14,17,10.80
2018,01,16,14,18,10.80
2018,01,16,14,19,10.70
2018,01,16,14,20,10.70
2018,01,16,14,21,10.70
2018,01,16,14,22,10.70
2018,01,16,14,23,10.70
2018,01,16,14,24,10.60
2018,01,16,14,25,10.60
2018,01,16,14,26,10.60
2018,01,16,14,27,10.60
2018,01,16,14,28,10.60
2018,01,16,14,29,10.60
2018,01,16,14,30,10.60
2018,01,16,14,31,10.60
2018,01,16,14,32,10.60
2018,01,16,14,33,10.60
2018,01,16,14,34,10.60
2018,01,16,14,35,10.60
2018,01,16,14,36,10.60
2018,01,16,14,37,10.60
2018,01,16,14,38,10.60
2018,01,16,14,39,10.60
2018,01,16,14,40,10.60
2018,01,16,14,41,10.60
2018,01,16,14,42,10.50
2018,01,16,14,43,10.50
2018,01,16,14,44,10.50
2018,01,16,14,45,10.50
2018,01,16,14,46,10.50
2018,01,16,14,47,10.50
2018,01,16,14,48,10.60
2018,01,16,14,49,10.60
2018,01,16,14,50,10.60
2018,01,16,14,51,10.60
2018,01,16,14,52,10.60
2018,01,16,14,53,10.60
2018,01,16,14,54,10.60
2018,01,16,14,55,10.60
2018,01,16,14,56,10.60
2018,01,16,14,57,10.60
2018,01,16,14,58,10.60
2018,01,16,14,59,10.70
2018,01,16,15,00,10.70
2018,01,16,15,01,10.70
2018,01,16,15,02,10.80
2018,01,16,15,03,10.80
2018,01,16,15,04,10.90
2018,01,16,15,05,10.90
2018,01,16,15,06,11.00
2018,01,16,15,07,11.00
2018,01,16,15,08,11.00
2018,01,16,15,09,11.00
2018,01,16,15,10,11.00
2018,01,16,15,11,11.00
2018,01,16,15,12,10.90
2018,01,16,15,13,10.90
2018,01,16,15,14,10.90
2018,01,16,15,15,10.80
2018,01,16,15,16,10.80
2018,01,16,15,17,10.80
2018,01,16,15,18,10.80
2018,01,16,15,19,10.80
2018,01,16,15,20,10.80
2018,01,16,15,21,10.80
2018,01,16,15,22,10.70
2018,01,16,15,23,10.70
2018,01,16,15,24,10.70
2018,01,16,15,25,10.70
2018,01,16,15,26,10.70
2018,01,16,15,27,10.60
2018,01,16,15,28,10.60
2018,01,16,15,29,10.50
2018,01,16,15,30,10.50
2018,01,16,15,31,10.40
2018,01,16,15,32,10.40
2018,01,16,15,33,10.40
2018,01,16,15,34,10.40
2018,01,16,15,35,10.40
2018,01,16,15,36,10.40
2018,01,16,15,37,10.40
2018,01,16,15,38,10.40
2018,01,16,15,39,10.40
2018,01,16,15,40,10.40
2018,01,16,15,41,10.40
2018,01,16,15,42,10.40
2018,01,16,15,43,10.40
2018,01,16,15,44,10.40
2018,01,16,15,45,10.40
2018,01,16,15,46,10.40
2018,01,16,15,47,10.40
2018,01,16,15,48,10.40
2018,01,16,15,49,10.40
2018,01,16,15,50,10.50
2018,01,16,15,51,10.50
2018,01,16,15,52,10.50
2018,01,16,15,53,10.40
2018,01,16,15,54,10.40
2018,01,16,15,55,10.40
2018,01,16,15,56,10.40
2018,01,16,15,57,10.40
2018,01,16,15,58,10.40
2018,01,16,15,59,10.40
2018,01,16,16,00,10.50
2018,01,16,16,01,10.50
2018,01,16,16,02,10.50
2018,01,16,16,03,10.50
2018,01,16,16,04,10.60
2018,01,16,16,05,10.60
2018,01,16,16,06,10.60
2018,01,16,16,07,10.60
2018,01,16,16,08,10.60
2018,01,16,16,09,10.60
2018,01,16,16,10,10.60
2018,01,16,16,11,10.60
2018,01,16,16,12,10.60
2018,01,16,16,13,10.50
2018,01,16,16,14,10.50
2018,01,16,16,15,10.50
2018,01,16,16,16,10.40
2018,01,16,16,17,10.40
2018,01,16,16,18,10.40
2018,01,16,16,19,10.40
2018,01,16,16,20,10.40
2018,01,16,16,21,10.40
2018,01,16,16,22,10.40
2018,01,16,16,23,10.40
2018,01,16,16,24,10.30
2018,01,16,16,25,10.30
2018,01,16,16,26,10.30
2018,01,16,16,27,10.20
2018,01,16,16,28,10.20
2018,01,16,16,29,10.20
2018,01,16,16,30,10.10
2018,01,16,16,31,10.10
2018,01,16,16,32,10.00
2018,01,16,16,33,10.00
2018,01,16,16,34,9.90
2018,01,16,16,35,9.90
2018,01,16,16,36,9.90
2018,01,16,16,37,9.80
2018,01,16,16,38,9.80
2018,01,16,16,39,9.80
2018,01,16,16,40,9.80
2018,01,16,16,41,9.70
2018,01,16,16,42,9.70
2018,01,16,16,43,9.70
2018,01,16,16,44,9.60
2018,01,16,16,45,9.60
2018,01,16,16,46,9.60
2018,01,16,16,47,9.60
2018,01,16,16,48,9.50
2018,01,16,16,49,9.50
2018,01,16,16,50,9.50
2018,01,16,16,51,9.40
2018,01,16,16,52,9.40
2018,01,16,16,53,9.40
2018,01,16,16,54,9.40
2018,01,16,16,55,9.40
2018,01,16,16,56,9.30
2018,01,16,16,57,9.30
2018,01,16,16,58,9.30
2018,01,16,16,59,9.30
2018,01,16,17,00,9.30
2018,01,16,17,01,9.20
2018,01,16,17,02,9.20
2018,01,16,17,03,9.20
2018,01,16,17,04,9.20
2018,01,16,17,05,9.10
2018,01,16,17,06,9.10
2018,01,16,17,07,9.10
2018,01,16,17,08,9.10
2018,01,16,17,09,9.10
2018,01,16,17,10,9.00
2018,01,16,17,11,9.00
2018,01,16,17,12,9.00
2018,01,16,17,13,8.90
2018,01,16,17,14,8.90
2018,01,16,17,15,8.90
2018,01,16,17,16,8.90
2018,01,16,17,17,8.90
2018,01,16,17,18,8.90
2018,01,16,17,19,8.90
2018,01,16,17,20,8.90
2018,01,16,17,21,8.80
2018,01,16,17,22,8.80
2018,01,16,17,23,8.80
2018,01,16,17,24,8.80
2018,01,16,17,25,8.80
2018,01,16,17,26,8.80
2018,01,16,17,27,8.80
2018,01,16,17,28,8.80
2018,01,16,17,29,8.80
2018,01,16,17,30,8.80
2018,01,16,17,31,8.80
2018,01,16,17,32,8.70
2018,01,16,17,33,8.70
2018,01,16,17,34,8.70
2018,01,16,17,35,8.70
2018,01,16,17,36,8.70
2018,01,16,17,37,8.70
2018,01,16,17,38,8.70
2018,01,16,17,39,8.70
2018,01,16,17,40,8.70
2018,01,16,17,41,8.70
2018,01,16,17,42,8.70
2018,01,16,17,43,8.70
2018,01,16,17,44,8.70
2018,01,16,17,45,8.70
2018,01,16,17,46,8.70
2018,01,16,17,47,8.70
2018,01,16,17,48,8.70
2018,01,16,17,49,8.70
2018,01,16,17,50,8.70
2018,01,16,17,51,8.70
2018,01,16,17,52,8.70
2018,01,16,17,53,8.70
2018,01,16,17,54,8.60
2018,01,16,17,55,8.60
2018,01,16,17,56,8.60
2018,01,16,17,57,8.60
2018,01,16,17,58,8.60
2018,01,16,17,59,8.60
2018,01,16,18,00,8.60
2018,01,16,18,01,8.60
2018,01,16,18,02,8.60
2018,01,16,18,03,8.60
2018,01,16,18,04,8.60
2018,01,16,18,05,8.60
2018,01,16,18,06,8.60
2018,01,16,18,07,8.60
2018,01,16,18,08,8.60
2018,01,16,18,09,8.60
2018,01,16,18,10,8.60
2018,01,16,18,11,8.60
2018,01,16,18,12,8.60
2018,01,16,18,13,8.60
2018,01,16,18,14,8.50
2018,01,16,18,15,8.50
2018,01,16,18,16,8.50
2018,01,16,18,17,8.50
2018,01,16,18,18,8.50
2018,01,16,18,19,8.40
2018,01,16,18,20,8.40
2018,01,16,18,21,8.40
2018,01,16,18,22,8.40
2018,01,16,18,23,8.40
2018,01,16,18,24,8.40
2018,01,16,18,25,8.30
2018,01,16,18,26,8.30
2018,01,16,18,27,8.30
2018,01,16,18,28,8.30
2018,01,16,18,29,8.30
2018,01,16,18,30,8.30
2018,01,16,18,31,8.30
2018,01,16,18,32,8.20
2018,01,16,18,33,8.20
2018,01,16,18,34,8.20
2018,01,16,18,35,8.10
2018,01,16,18,36,8.10
2018,01,16,18,37,8.10
2018,01,16,18,38,8.00
2018,01,16,18,39,8.00
2018,01,16,18,40,7.90
2018,01,16,18,41,7.90
2018,01,16,18,42,7.90
2018,01,16,18,43,7.90
2018,01,16,18,44,7.90
2018,01,16,18,45,7.80
2018,01,16,18,46,7.80
2018,01,16,18,47,7.80
2018,01,16,18,48,7.80
2018,01,16,18,49,7.80
2018,01,16,18,50,7.80
2018,01,16,18,51,7.80
2018,01,16,18,52,7.80
2018,01,16,18,53,7.70
2018,01,16,18,54,7.70
2018,01,16,18,55,7.70
2018,01,16,18,56,7.70
2018,01,16,18,57,7.70
2018,01,16,18,58,7.70
2018,01,16,18,59,7.70
2018,01,16,19,00,7.60
2018,01,16,19,01,7.60
2018,01,16,19,02,7.60
2018,01,16,19,03,7.60
2018,01,16,19,04,7.60
2018,01,16,19,05,7.50
2018,01,16,19,06,7.50
2018,01,16,19,07,7.50
2018,01,16,19,08,7.40
2018,01,16,19,09,7.40
2018,01,16,19,10,7.40
2018,01,16,19,11,7.40
2018,01,16,19,12,7.40
2018,01,16,19,13,7.30
2018,01,16,19,14,7.30
2018,01,16,19,15,7.30
2018,01,16,19,16,7.30
2018,01,16,19,17,7.30
2018,01,16,19,18,7.30
2018,01,16,19,19,7.30
2018,01,16,19,20,7.30
2018,01,16,19,21,7.30
2018,01,16,19,22,7.20
2018,01,16,19,23,7.20
2018,01,16,19,24,7.20
2018,01,16,19,25,7.20
2018,01,16,19,26,7.20
2018,01,16,19,27,7.20
2018,01,16,19,28,7.20
2018,01,16,19,29,7.20
2018,01,16,19,30,7.20
2018,01,16,19,31,7.20
2018,01,16,19,32,7.20
2018,01,16,19,33,7.20
2018,01,16,19,34,7.20
2018,01,16,19,35,7.10
2018,01,16,19,36,7.10
2018,01,16,19,37,7.10
2018,01,16,19,38,7.10
2018,01,16,19,39,7.00
2018,01,16,19,40,7.00
2018,01,16,19,41,6.90
2018,01,16,19,42,6.90
2018,01,16,19,43,6.90
2018,01,16,19,44,6.80
2018,01,16,19,45,6.80
2018,01,16,19,46,6.80
2018,01,16,19,47,6.80
2018,01,16,19,48,6.80
2018,01,16,19,49,6.70
2018,01,16,19,50,6.70
2018,01,16,19,51,6.70
2018,01,16,19,52,6.70
2018,01,16,19,53,6.70
2018,01,16,19,54,6.60
2018,01,16,19,55,6.60
2018,01,16,19,56,6.60
2018,01,16,19,57,6.60
2018,01,16,19,58,6.60
2018,01,16,19,59,6.60
2018,01,16,20,00,6.60
2018,01,16,20,01,6.60
2018,01,16,20,02,6.60
2018,01,16,20,03,6.60
2018,01,16,20,04,6.60
2018,01,16,20,05,6.70
2018,01,16,20,06,6.70
2018,01,16,20,07,6.70
2018,01,16,20,08,6.70
2018,01,16,20,09,6.70
2018,01,16,20,10,6.70
2018,01,16,20,11,6.70
2018,01,16,20,12,6.70
2018,01,16,20,13,6.70
2018,01,16,20,14,6.70
2018,01,16,20,15,6.70
2018,01,16,20,16,6.60
2018,01,16,20,17,6.60
2018,01,16,20,18,6.60
2018,01,16,20,19,6.60
2018,01,16,20,20,6.60
2018,01,16,20,21,6.60
2018,01,16,20,22,6.60
2018,01,16,20,23,6.60
2018,01,16,20,24,6.60
2018,01,16,20,25,6.60
2018,01,16,20,26,6.60
2018,01,16,20,27,6.60
2018,01,16,20,28,6.60
2018,01,16,20,29,6.60
2018,01,16,20,30,6.60
2018,01,16,20,31,6.60
2018,01,16,20,32,6.60
2018,01,16,20,33,6.60
2018,01,16,20,34,6.60
2018,01,16,20,35,6.60
2018,01,16,20,36,6.60
2018,01,16,20,37,6.50
2018,01,16,20,38,6.50
2018,01,16,20,39,6.50
2018,01,16,20,40,6.50
2018,01,16,20,41,6.50
2018,01,16,20,42,6.50
2018,01,16,20,43,6.60
2018,01,16,20,44,6.60
2018,01,16,20,45,6.60
2018,01,16,20,46,6.60
2018,01,16,20,47,6.60
2018,01,16,20,48,6.60
2018,01,16,20,49,6.70
2018,01,16,20,50,6.70
2018,01,16,20,51,6.70
2018,01,16,20,52,6.70
2018,01,16,20,53,6.80
2018,01,16,20,54,6.80
2018,01,16,20,55,6.80
2018,01,16,20,56,6.80
2018,01,16,20,57,6.90
2018,01,16,20,58,6.90
2018,01,16,20,59,6.90
2018,01,16,21,00,6.90
2018,01,16,21,01,6.90
2018,01,16,21,02,7.00
2018,01,16,21,03,7.00
2018,01,16,21,04,7.00
2018,01,16,21,05,7.10
2018,01,16,21,06,7.10
2018,01,16,21,07,7.10
2018,01,16,21,08,7.20
2018,01,16,21,09,7.20
2018,01,16,21,10,7.20
2018,01,16,21,11,7.30
2018,01,16,21,12,7.30
2018,01,16,21,13,7.30
2018,01,16,21,14,7.30
2018,01,16,21,15,7.30
2018,01,16,21,16,7.30
2018,01,16,21,17,7.30
2018,01,16,21,18,7.30
2018,01,16,21,19,7.30
2018,01,16,21,20,7.30
2018,01,16,21,21,7.40
2018,01,16,21,22,7.40
2018,01,16,21,23,7.40
2018,01,16,21,24,7.40
2018,01,16,21,25,7.40
2018,01,16,21,26,7.40
2018,01,16,21,27,7.40
2018,01,16,21,28,7.40
2018,01,16,21,29,7.40
2018,01,16,21,30,7.40
2018,01,16,21,31,7.40
2018,01,16,21,32,7.40
2018,01,16,21,33,7.40
2018,01,16,21,34,7.40
2018,01,16,21,35,7.40
2018,01,16,21,36,7.40
2018,01,16,21,37,7.50
2018,01,16,21,38,7.50
2018,01,16,21,39,7.50
2018,01,16,21,40,7.50
2018,01,16,21,41,7.60
2018,01,16,21,42,7.60
2018,01,16,21,43,7.60
2018,01,16,21,44,7.60
2018,01,16,21,45,7.60
2018,01,16,21,46,7.60